Time,TemperatureF,DewpointF,PressureIn,WindDirection,WindDirectionDegrees,WindSpeedMPH,WindSpeedGustMPH,Humidity,HourlyPrecipIn,Conditions,Clouds,dailyrainin,SoftwareType,DateUTC
2013-05-10 12:31:00,75.7,35.3,26.90,North,-999,-999.0,-999.0,23,0.00,,,0.00,VWS V14.01,2013-05-10 19:31:00,
2013-05-10 12:36:00,75.9,34.4,26.90,North,-999,-999.0,-999.0,22,0.00,,,0.00,VWS V14.01,2013-05-10 19:36:00,
2013-05-10 12:41:00,75.6,34.1,26.90,North,-999,-999.0,-999.0,22,0.00,,,0.00,VWS V14.01,2013-05-10 19:41:00,
2013-05-10 12:46:00,75.7,35.3,26.90,North,-999,-999.0,-999.0,23,0.00,,,0.00,VWS V14.01,2013-05-10 19:46:00,
2013-05-10 12:51:00,75.7,35.3,26.90,North,-999,-999.0,-999.0,23,0.00,,,0.00,VWS V14.01,2013-05-10 19:51:00,
2013-05-10 12:56:00,76.3,35.8,26.90,North,-999,-999.0,-999.0,23,0.00,,,0.00,VWS V14.01,2013-05-10 19:56:00,
2013-05-10 13:01:00,76.6,35.0,26.90,North,-999,-999.0,-999.0,22,0.00,,,0.00,VWS V14.01,2013-05-10 20:01:00,
2013-05-10 13:06:00,76.8,36.2,26.90,North,-999,-999.0,-999.0,23,0.00,,,0.00,VWS V14.01,2013-05-10 20:06:00,
2013-05-10 13:11:00,76.3,34.7,26.87,North,-999,-999.0,-999.0,22,0.00,,,0.00,VWS V14.01,2013-05-10 20:11:00,
2013-05-10 13:16:00,76.8,36.2,26.87,North,-999,-999.0,-999.0,23,0.00,,,0.00,VWS V14.01,2013-05-10 20:16:00,
2013-05-10 13:21:00,76.6,35.0,26.87,North,-999,-999.0,-999.0,22,0.00,,,0.00,VWS V14.01,2013-05-10 20:21:00,
2013-05-10 13:26:00,76.5,36.0,26.87,North,-999,-999.0,-999.0,23,0.00,,,0.00,VWS V14.01,2013-05-10 20:26:00,
2013-05-10 13:31:00,77.7,35.9,26.87,North,-999,-999.0,-999.0,22,0.00,,,0.00,VWS V14.01,2013-05-10 20:31:00,
2013-05-10 13:36:00,78.3,36.3,26.87,North,-999,-999.0,-999.0,22,0.00,,,0.00,VWS V14.01,2013-05-10 20:36:00,
2013-05-10 13:41:00,77.4,36.7,26.87,North,-999,-999.0,-999.0,23,0.00,,,0.00,VWS V14.01,2013-05-10 20:41:00,
2013-05-10 13:46:00,74.8,34.6,26.87,North,-999,-999.0,-999.0,23,0.00,,,0.00,VWS V14.01,2013-05-10 20:46:00,
2013-05-10 13:51:00,76.8,35.1,26.87,North,-999,-999.0,-999.0,22,0.00,,,0.00,VWS V14.01,2013-05-10 20:51:00,
2013-05-10 13:56:00,77.2,35.4,26.87,North,-999,-999.0,-999.0,22,0.00,,,0.00,VWS V14.01,2013-05-10 20:56:00,
2013-05-10 14:01:00,77.9,36.0,26.87,North,-999,-999.0,-999.0,22,0.00,,,0.00,VWS V14.01,2013-05-10 21:01:00,
2013-05-10 14:06:00,77.5,35.7,26.87,North,-999,-999.0,-999.0,22,0.00,,,0.00,VWS V14.01,2013-05-10 21:06:00,
2013-05-10 14:11:00,76.8,35.1,26.87,North,-999,-999.0,-999.0,22,0.00,,,0.00,VWS V14.01,2013-05-10 21:11:00,
2013-05-10 14:16:00,77.4,35.6,26.87,North,-999,-999.0,-999.0,22,0.00,,,0.00,VWS V14.01,2013-05-10 21:16:00,
2013-05-10 14:21:00,77.9,34.9,26.87,North,-999,-999.0,-999.0,21,0.00,,,0.00,VWS V14.01,2013-05-10 21:21:00,
2013-05-10 14:26:00,79.0,35.8,26.87,North,-999,-999.0,-999.0,21,0.00,,,0.00,VWS V14.01,2013-05-10 21:26:00,
2013-05-10 14:31:00,78.1,36.2,26.87,North,-999,-999.0,-999.0,22,0.00,,,0.00,VWS V14.01,2013-05-10 21:31:00,
2013-05-10 14:36:00,78.8,36.8,26.87,North,-999,-999.0,-999.0,22,0.00,,,0.00,VWS V14.01,2013-05-10 21:36:00,
2013-05-10 14:41:00,79.0,35.8,26.87,North,-999,-999.0,-999.0,21,0.00,,,0.00,VWS V14.01,2013-05-10 21:41:00,
2013-05-10 14:46:00,78.1,36.2,26.87,North,-999,-999.0,-999.0,22,0.00,,,0.00,VWS V14.01,2013-05-10 21:46:00,
2013-05-10 14:51:00,79.7,36.3,26.87,North,-999,-999.0,-999.0,21,0.00,,,0.00,VWS V14.01,2013-05-10 21:51:00,
2013-05-10 14:56:00,79.3,36.0,26.87,North,-999,-999.0,-999.0,21,0.00,,,0.00,VWS V14.01,2013-05-10 21:56:00,
2013-05-10 14:58:00,79.5,36.2,26.87,North,-999,-999.0,-999.0,21,0.00,,,0.00,VWS V14.01,2013-05-10 21:58:00,
2013-05-10 15:03:00,79.3,36.0,26.87,North,-999,-999.0,-999.0,21,0.00,,,0.00,VWS V14.01,2013-05-10 22:03:00,
2013-05-10 15:08:00,79.3,36.0,26.87,North,-999,-999.0,-999.0,21,0.00,,,0.00,VWS V14.01,2013-05-10 22:08:00,
2013-05-10 15:13:00,79.2,35.9,26.87,North,-999,-999.0,-999.0,21,0.00,,,0.00,VWS V14.01,2013-05-10 22:13:00,
2013-05-10 15:18:00,78.6,36.6,26.87,North,-999,-999.0,-999.0,22,0.00,,,0.00,VWS V14.01,2013-05-10 22:18:00,
2013-05-10 15:23:00,77.9,36.0,26.84,North,-999,-999.0,-999.0,22,0.00,,,0.00,VWS V14.01,2013-05-10 22:23:00,
2013-05-10 15:28:00,78.1,36.2,26.84,North,-999,-999.0,-999.0,22,0.00,,,0.00,VWS V14.01,2013-05-10 22:28:00,
2013-05-10 15:33:00,78.8,36.8,26.84,North,-999,-999.0,-999.0,22,0.00,,,0.00,VWS V14.01,2013-05-10 22:33:00,
2013-05-10 15:38:00,78.8,35.6,26.84,North,-999,-999.0,-999.0,21,0.00,,,0.00,VWS V14.01,2013-05-10 22:38:00,
2013-05-10 15:43:00,79.2,35.9,26.84,North,-999,-999.0,-999.0,21,0.00,,,0.00,VWS V14.01,2013-05-10 22:43:00,
2013-05-10 15:48:00,79.0,36.9,26.84,North,-999,-999.0,-999.0,22,0.00,,,0.00,VWS V14.01,2013-05-10 22:48:00,
2013-05-10 15:53:00,79.2,35.9,26.84,North,-999,-999.0,-999.0,21,0.00,,,0.00,VWS V14.01,2013-05-10 22:53:00,
2013-05-10 15:58:00,78.8,35.6,26.84,North,-999,-999.0,-999.0,21,0.00,,,0.00,VWS V14.01,2013-05-10 22:58:00,
2013-05-10 16:03:00,78.4,36.5,26.84,North,-999,-999.0,-999.0,22,0.00,,,0.00,VWS V14.01,2013-05-10 23:03:00,
2013-05-10 16:08:00,78.3,36.3,26.84,North,-999,-999.0,-999.0,22,0.00,,,0.00,VWS V14.01,2013-05-10 23:08:00,
2013-05-10 16:13:00,78.1,36.2,26.84,North,-999,-999.0,-999.0,22,0.00,,,0.00,VWS V14.01,2013-05-10 23:13:00,
2013-05-10 16:18:00,78.4,36.5,26.84,North,-999,-999.0,-999.0,22,0.00,,,0.00,VWS V14.01,2013-05-10 23:18:00,
2013-05-10 16:23:00,78.4,36.5,26.84,North,-999,-999.0,-999.0,22,0.00,,,0.00,VWS V14.01,2013-05-10 23:23:00,
2013-05-10 16:28:00,78.3,36.3,26.84,North,-999,-999.0,-999.0,22,0.00,,,0.00,VWS V14.01,2013-05-10 23:28:00,
2013-05-10 16:33:00,77.5,35.7,26.84,North,-999,-999.0,-999.0,22,0.00,,,0.00,VWS V14.01,2013-05-10 23:33:00,
2013-05-10 16:38:00,77.5,35.7,26.84,North,-999,-999.0,-999.0,22,0.00,,,0.00,VWS V14.01,2013-05-10 23:38:00,
2013-05-10 16:43:00,77.7,35.9,26.84,North,-999,-999.0,-999.0,22,0.00,,,0.00,VWS V14.01,2013-05-10 23:43:00,
2013-05-10 16:48:00,77.5,35.7,26.84,North,-999,-999.0,-999.0,22,0.00,,,0.00,VWS V14.01,2013-05-10 23:48:00,
2013-05-10 16:53:00,77.0,35.3,26.84,North,-999,-999.0,-999.0,22,0.00,,,0.00,VWS V14.01,2013-05-10 23:53:00,
2013-05-10 16:58:00,77.5,35.7,26.84,North,-999,-999.0,-999.0,22,0.00,,,0.00,VWS V14.01,2013-05-10 23:58:00,
2013-05-10 17:03:00,77.5,35.7,26.84,North,-999,-999.0,-999.0,22,0.00,,,0.00,VWS V14.01,2013-05-11 00:03:00,
2013-05-10 17:08:00,77.5,34.6,26.84,North,-999,-999.0,-999.0,21,0.00,,,0.00,VWS V14.01,2013-05-11 00:08:00,
2013-05-10 17:13:00,76.8,35.1,26.84,North,-999,-999.0,-999.0,22,0.00,,,0.00,VWS V14.01,2013-05-11 00:13:00,
2013-05-10 17:18:00,76.6,35.0,26.84,North,-999,-999.0,-999.0,22,0.00,,,0.00,VWS V14.01,2013-05-11 00:18:00,
2013-05-10 17:23:00,76.6,35.0,26.84,North,-999,-999.0,-999.0,22,0.00,,,0.00,VWS V14.01,2013-05-11 00:23:00,
2013-05-10 17:28:00,76.3,34.7,26.84,North,-999,-999.0,-999.0,22,0.00,,,0.00,VWS V14.01,2013-05-11 00:28:00,
2013-05-10 17:33:00,76.3,34.7,26.84,North,-999,-999.0,-999.0,22,0.00,,,0.00,VWS V14.01,2013-05-11 00:33:00,
2013-05-10 17:38:00,76.3,34.7,26.81,North,-999,-999.0,-999.0,22,0.00,,,0.00,VWS V14.01,2013-05-11 00:38:00,
2013-05-10 17:43:00,75.9,34.4,26.81,North,-999,-999.0,-999.0,22,0.00,,,0.00,VWS V14.01,2013-05-11 00:43:00,
2013-05-10 17:48:00,75.9,34.4,26.81,North,-999,-999.0,-999.0,22,0.00,,,0.00,VWS V14.01,2013-05-11 00:48:00,
2013-05-10 17:53:00,75.6,34.1,26.81,North,-999,-999.0,-999.0,22,0.00,,,0.00,VWS V14.01,2013-05-11 00:53:00,
2013-05-10 17:58:00,75.0,33.6,26.81,North,-999,-999.0,-999.0,22,0.00,,,0.00,VWS V14.01,2013-05-11 00:58:00,
2013-05-10 18:03:00,74.7,34.4,26.81,North,-999,-999.0,-999.0,23,0.00,,,0.00,VWS V14.01,2013-05-11 01:03:00,
2013-05-10 18:08:00,74.7,34.4,26.81,North,-999,-999.0,-999.0,23,0.00,,,0.00,VWS V14.01,2013-05-11 01:08:00,
2013-05-10 18:13:00,74.3,34.1,26.81,North,-999,-999.0,-999.0,23,0.00,,,0.00,VWS V14.01,2013-05-11 01:13:00,
2013-05-10 18:18:00,73.9,33.8,26.81,North,-999,-999.0,-999.0,23,0.00,,,0.00,VWS V14.01,2013-05-11 01:18:00,
2013-05-10 18:23:00,73.6,33.5,26.81,North,-999,-999.0,-999.0,23,0.00,,,0.00,VWS V14.01,2013-05-11 01:23:00,
2013-05-10 18:28:00,73.4,33.4,26.81,North,-999,-999.0,-999.0,23,0.00,,,0.00,VWS V14.01,2013-05-11 01:28:00,
2013-05-10 18:33:00,72.9,32.9,26.81,North,-999,-999.0,-999.0,23,0.00,,,0.00,VWS V14.01,2013-05-11 01:33:00,
2013-05-10 18:38:00,72.3,33.5,26.81,North,-999,-999.0,-999.0,24,0.00,,,0.00,VWS V14.01,2013-05-11 01:38:00,
2013-05-10 18:43:00,72.1,32.3,26.81,North,-999,-999.0,-999.0,23,0.00,,,0.00,VWS V14.01,2013-05-11 01:43:00,
2013-05-10 18:48:00,71.8,33.1,26.81,North,-999,-999.0,-999.0,24,0.00,,,0.00,VWS V14.01,2013-05-11 01:48:00,
2013-05-10 18:53:00,71.1,32.5,26.81,North,-999,-999.0,-999.0,24,0.00,,,0.00,VWS V14.01,2013-05-11 01:53:00,
2013-05-10 18:58:00,70.2,31.7,26.81,North,-999,-999.0,-999.0,24,0.00,,,0.00,VWS V14.01,2013-05-11 01:58:00,
2013-05-10 19:03:00,70.0,32.6,26.81,North,-999,-999.0,-999.0,25,0.00,,,0.00,VWS V14.01,2013-05-11 02:03:00,
2013-05-10 19:08:00,69.1,31.8,26.81,North,-999,-999.0,-999.0,25,0.00,,,0.00,VWS V14.01,2013-05-11 02:08:00,
2013-05-10 19:13:00,68.4,32.2,26.81,North,-999,-999.0,-999.0,26,0.00,,,0.00,VWS V14.01,2013-05-11 02:13:00,
2013-05-10 19:17:00,67.5,32.3,26.81,North,-999,-999.0,-999.0,27,0.00,,,0.00,VWS V14.01,2013-05-11 02:17:00,
2013-05-10 19:22:00,66.2,31.3,26.81,North,-999,-999.0,-999.0,27,0.00,,,0.00,VWS V14.01,2013-05-11 02:22:00,
2013-05-10 19:27:00,64.4,30.6,26.81,North,-999,-999.0,-999.0,28,0.00,,,0.00,VWS V14.01,2013-05-11 02:27:00,
2013-05-10 19:32:00,63.0,31.9,26.81,North,-999,-999.0,-999.0,31,0.00,,,0.00,VWS V14.01,2013-05-11 02:32:00,
2013-05-10 19:37:00,62.2,32.8,26.81,North,-999,-999.0,-999.0,33,0.00,,,0.00,VWS V14.01,2013-05-11 02:37:00,
2013-05-10 19:42:00,61.3,32.8,26.81,North,-999,-999.0,-999.0,34,0.00,,,0.00,VWS V14.01,2013-05-11 02:42:00,
2013-05-10 19:47:00,60.6,32.8,26.81,North,-999,-999.0,-999.0,35,0.00,,,0.00,VWS V14.01,2013-05-11 02:47:00,
2013-05-10 19:52:00,60.3,32.5,26.81,North,-999,-999.0,-999.0,35,0.00,,,0.00,VWS V14.01,2013-05-11 02:52:00,
2013-05-10 19:57:00,59.7,32.0,26.81,North,-999,-999.0,-999.0,35,0.00,,,0.00,VWS V14.01,2013-05-11 02:57:00,
2013-05-10 20:02:00,59.2,31.6,26.81,North,-999,-999.0,-999.0,35,0.00,,,0.00,VWS V14.01,2013-05-11 03:02:00,
2013-05-10 20:07:00,58.6,31.1,26.81,North,-999,-999.0,-999.0,35,0.00,,,0.00,VWS V14.01,2013-05-11 03:07:00,
2013-05-10 20:12:00,58.1,32.0,26.81,North,-999,-999.0,-999.0,37,0.00,,,0.00,VWS V14.01,2013-05-11 03:12:00,
2013-05-10 20:17:00,57.7,33.6,26.81,North,-999,-999.0,-999.0,40,0.00,,,0.00,VWS V14.01,2013-05-11 03:17:00,
2013-05-10 20:22:00,57.2,33.7,26.84,North,-999,-999.0,-999.0,41,0.00,,,0.00,VWS V14.01,2013-05-11 03:22:00,
2013-05-10 20:27:00,56.8,34.0,26.84,North,-999,-999.0,-999.0,42,0.00,,,0.00,VWS V14.01,2013-05-11 03:27:00,
2013-05-10 20:32:00,56.3,34.1,26.84,North,-999,-999.0,-999.0,43,0.00,,,0.00,VWS V14.01,2013-05-11 03:32:00,
2013-05-10 20:37:00,55.6,34.6,26.84,North,-999,-999.0,-999.0,45,0.00,,,0.00,VWS V14.01,2013-05-11 03:37:00,
2013-05-10 20:42:00,54.9,35.6,26.84,North,-999,-999.0,-999.0,48,0.00,,,0.00,VWS V14.01,2013-05-11 03:42:00,
2013-05-10 20:47:00,54.3,35.1,26.84,North,-999,-999.0,-999.0,48,0.00,,,0.00,VWS V14.01,2013-05-11 03:47:00,
2013-05-10 20:52:00,53.8,34.6,26.84,North,-999,-999.0,-999.0,48,0.00,,,0.00,VWS V14.01,2013-05-11 03:52:00,
2013-05-10 20:57:00,53.1,33.4,26.84,North,-999,-999.0,-999.0,47,0.00,,,0.00,VWS V14.01,2013-05-11 03:57:00,
2013-05-10 21:01:00,52.3,33.8,26.84,North,-999,-999.0,-999.0,49,0.00,,,0.00,VWS V14.01,2013-05-11 04:01:00,
2013-05-10 21:06:00,51.6,33.6,26.84,North,-999,-999.0,-999.0,50,0.00,,,0.00,VWS V14.01,2013-05-11 04:06:00,
2013-05-10 21:11:00,51.8,33.8,26.84,North,-999,-999.0,-999.0,50,0.00,,,0.00,VWS V14.01,2013-05-11 04:11:00,
2013-05-10 21:16:00,52.2,33.6,26.84,North,-999,-999.0,-999.0,49,0.00,,,0.00,VWS V14.01,2013-05-11 04:16:00,
2013-05-10 21:21:00,52.0,33.4,26.84,North,-999,-999.0,-999.0,49,0.00,,,0.00,VWS V14.01,2013-05-11 04:21:00,
2013-05-10 21:26:00,51.1,33.6,26.84,North,-999,-999.0,-999.0,51,0.00,,,0.00,VWS V14.01,2013-05-11 04:26:00,
2013-05-10 21:31:00,50.4,33.4,26.84,North,-999,-999.0,-999.0,52,0.00,,,0.00,VWS V14.01,2013-05-11 04:31:00,
2013-05-10 21:36:00,50.4,33.9,26.84,North,-999,-999.0,-999.0,53,0.00,,,0.00,VWS V14.01,2013-05-11 04:36:00,
2013-05-10 21:41:00,51.6,35.5,26.84,North,-999,-999.0,-999.0,54,0.00,,,0.00,VWS V14.01,2013-05-11 04:41:00,
2013-05-10 21:46:00,52.0,35.4,26.84,North,-999,-999.0,-999.0,53,0.00,,,0.00,VWS V14.01,2013-05-11 04:46:00,
2013-05-10 21:51:00,53.2,37.0,26.84,North,-999,-999.0,-999.0,54,0.00,,,0.00,VWS V14.01,2013-05-11 04:51:00,
2013-05-10 21:56:00,54.1,36.9,26.84,North,-999,-999.0,-999.0,52,0.00,,,0.00,VWS V14.01,2013-05-11 04:56:00,
2013-05-10 22:01:00,53.6,34.9,26.84,North,-999,-999.0,-999.0,49,0.00,,,0.00,VWS V14.01,2013-05-11 05:01:00,
2013-05-10 22:06:00,52.5,34.4,26.84,North,-999,-999.0,-999.0,50,0.00,,,0.00,VWS V14.01,2013-05-11 05:06:00,
2013-05-10 22:11:00,52.3,35.2,26.84,North,-999,-999.0,-999.0,52,0.00,,,0.00,VWS V14.01,2013-05-11 05:11:00,
2013-05-10 22:16:00,52.3,34.8,26.84,North,-999,-999.0,-999.0,51,0.00,,,0.00,VWS V14.01,2013-05-11 05:16:00,
2013-05-10 22:21:00,50.7,33.8,26.84,North,-999,-999.0,-999.0,52,0.00,,,0.00,VWS V14.01,2013-05-11 05:21:00,
2013-05-10 22:26:00,49.1,33.7,26.84,North,-999,-999.0,-999.0,55,0.00,,,0.00,VWS V14.01,2013-05-11 05:26:00,
2013-05-10 22:31:00,49.1,34.5,26.84,North,-999,-999.0,-999.0,57,0.00,,,0.00,VWS V14.01,2013-05-11 05:31:00,
2013-05-10 22:36:00,48.4,33.4,26.84,North,-999,-999.0,-999.0,56,0.00,,,0.00,VWS V14.01,2013-05-11 05:36:00,
2013-05-10 22:41:00,49.1,35.0,26.84,North,-999,-999.0,-999.0,58,0.00,,,0.00,VWS V14.01,2013-05-11 05:41:00,
2013-05-10 22:46:00,50.0,34.9,26.84,North,-999,-999.0,-999.0,56,0.00,,,0.00,VWS V14.01,2013-05-11 05:46:00,
2013-05-10 22:51:00,50.5,35.0,26.84,North,-999,-999.0,-999.0,55,0.00,,,0.00,VWS V14.01,2013-05-11 05:51:00,
2013-05-10 22:56:00,49.8,34.3,26.84,North,-999,-999.0,-999.0,55,0.00,,,0.00,VWS V14.01,2013-05-11 05:56:00,
2013-05-10 23:01:00,49.1,34.1,26.84,North,-999,-999.0,-999.0,56,0.00,,,0.00,VWS V14.01,2013-05-11 06:01:00,
2013-05-10 23:06:00,48.6,34.9,26.84,North,-999,-999.0,-999.0,59,0.00,,,0.00,VWS V14.01,2013-05-11 06:06:00,
2013-05-10 23:11:00,47.8,34.2,26.84,North,-999,-999.0,-999.0,59,0.00,,,0.00,VWS V14.01,2013-05-11 06:11:00,
2013-05-10 23:16:00,47.1,35.2,26.84,North,-999,-999.0,-999.0,63,0.00,,,0.00,VWS V14.01,2013-05-11 06:16:00,
2013-05-10 23:21:00,47.1,35.2,26.84,North,-999,-999.0,-999.0,63,0.00,,,0.00,VWS V14.01,2013-05-11 06:21:00,
2013-05-10 23:26:00,48.0,35.6,26.84,North,-999,-999.0,-999.0,62,0.00,,,0.00,VWS V14.01,2013-05-11 06:26:00,
2013-05-10 23:31:00,48.7,34.2,26.84,North,-999,-999.0,-999.0,57,0.00,,,0.00,VWS V14.01,2013-05-11 06:31:00,
2013-05-10 23:36:00,49.5,36.2,26.84,North,-999,-999.0,-999.0,60,0.00,,,0.00,VWS V14.01,2013-05-11 06:36:00,
2013-05-10 23:41:00,50.5,35.4,26.84,North,-999,-999.0,-999.0,56,0.00,,,0.00,VWS V14.01,2013-05-11 06:41:00,
2013-05-10 23:46:00,50.9,35.3,26.84,North,-999,-999.0,-999.0,55,0.00,,,0.00,VWS V14.01,2013-05-11 06:46:00,
2013-05-10 23:51:00,51.1,36.0,26.84,North,-999,-999.0,-999.0,56,0.00,,,0.00,VWS V14.01,2013-05-11 06:51:00,
2013-05-10 23:56:00,50.9,35.8,26.84,North,-999,-999.0,-999.0,56,0.00,,,0.00,VWS V14.01,2013-05-11 06:56:00,